Regional Weather Roundup
Issued by NWS

Home | Current Version | Previous Version | Graphics & Text | Print | Product List | Glossary On
Versions: 1 2 3 4 5 6 7 8 9 10 11 12 13 14 15 16 17 18 19 20 21 22 23 24 25 26 27 28 29 30 31 32 33 34 35 36 37 38 39 40 41 42 43 44 45 46 47 48 49 50
000
ASUS45 KSLC 291310
RWRUT

UTAH REGIONAL WEATHER ROUNDUP
NATIONAL WEATHER SERVICE SALT LAKE CITY UT
700 AM MDT TUE JUL 29 2014

UTZ001>011-023>025-291400-

NORTHERN UTAH

CITY           SKY/WX    TMP DP  RH WIND       PRES   REMARKS
HILL AFB       CLOUDY    66  58  74 E7        30.21S
LOGAN          LGT RAIN  64  62  93 N5        30.22R
OGDEN          CLOUDY    68  60  75 N5        30.19S
PROVO AIRPORT  CLOUDY    63  59  88 E3        30.22S
SALT LAKE CITY CLOUDY    68  64  87 S5        30.18R
VERNAL         CLOUDY    63  59  87 CALM      30.28R
WENDOVER       CLOUDY    70  57  64 E7        30.20S
HEBER CITY     CLOUDY    61  59  94 CALM      30.28S
WEST JORDAN    CLOUDY    68  66  94 SE3       30.21S

$$

UTZ012>022-026-027-291400-

SOUTHERN UTAH

CITY           SKY/WX    TMP DP  RH WIND       PRES   REMARKS
BRYCE CANYON   CLEAR     49  48  97 CALM      30.42S
CEDAR CITY     MOCLDY    63  53  70 SE6       30.26S
MILFORD        CLOUDY    70  54  56 SW5       30.21S
MOAB/CYNLANDS  CLEAR     65  62  90 SE3       30.24R
PRICE          CLOUDY    63  57  81 E8        30.32S
ST GEORGE      CLOUDY    73  55  53 S3        30.12R
KANAB            N/A     61  54  77 N3        30.29R

$$

REGIONAL REPORTS     COLORADO/ARIZONA

CITY           SKY/WX    TMP DP  RH WIND       PRES   REMARKS
CRAIG, CO      CLOUDY    56  54  93 E5        30.34S
GRAND JUNCTION CLOUDY    64  59  83 E9        30.27R
RIFLE          LGT RAIN  61  59  93 CALM      30.32S
MONTROSE       LGT RAIN  61  59  93 E9        30.35F
CORTEZ         CLOUDY    62  60  93 CALM      30.32F
PAGE, AZ       CLEAR     72  52  49 CALM      30.21R
GRAND CANYON   CLEAR     50  48  93 CALM      30.37S
KINGMAN        CLEAR     69  58  67 CALM      30.12S
FLAGSTAFF      CLEAR     51  48  89 CALM      30.41R

$$

REGIONAL REPORTS    NEVADA/IDAHO/WYOMING

CITY           SKY/WX    TMP DP  RH WIND       PRES   REMARKS
LAS VEGAS, NV  PTCLDY    79  63  57 S9        30.00S
ELY            CLOUDY    56  54  93 CALM      30.32R
ELKO           CLOUDY    65  55  70 CALM      30.24S
POCATELLO, ID  MOCLDY    63  61  93 NW3       30.22R
BURLEY         CLEAR     62  56  80 E5        30.17S
EVANSTON, WY   LGT RAIN  56  55  97 CALM      30.36S
ROCK SPRINGS   CLOUDY    64  46  52 S3        30.33S

$$


USA.gov is the U.S. government's official web portal to all federal, state and local government web resources and services.